| time (UTC) | temp C | wind direction | speed KPH | gust KPH | rain 1hr cm | rain 24hr cm | rain mn cm | humidity % | barometer mb |
| 20260510024015 | 7 | 0.0 | 0.0 | 0.00 | 0.18 | 0.18 | 57 | 1012.7 | |
| 20260510023015 | 7 | 0.0 | 0.0 | 0.00 | 0.18 | 0.18 | 56 | 1012.5 | |
| 20260510022015 | 7 | 350 | 0.0 | 1.6 | 0.00 | 0.18 | 0.18 | 55 | 1012.2 |
| 20260510021015 | 7 | 350 | 0.0 | 1.6 | 0.00 | 0.18 | 0.18 | 55 | 1012.1 |
| 20260510020016 | 7 | 0.0 | 0.0 | 0.00 | 0.18 | 0.18 | 51 | 1011.9 | |
| 20260510015015 | 8 | 0.0 | 0.0 | 0.00 | 0.18 | 0.18 | 48 | 1011.7 | |
| 20260510014015 | 8 | 0.0 | 0.0 | 0.00 | 0.18 | 0.18 | 48 | 1011.5 | |
| 20260510013015 | 8 | 0.0 | 0.0 | 0.00 | 0.18 | 0.18 | 48 | 1011.2 | |
| 20260510012015 | 8 | 0.0 | 1.6 | 0.00 | 0.18 | 0.18 | 47 | 1011.0 | |
| 20260510011015 | 9 | 351 | 0.0 | 1.6 | 0.00 | 0.18 | 0.18 | 47 | 1010.8 |
| 20260510010055 | 10 | 353 | 1.6 | 4.8 | 0.00 | 0.18 | 0.18 | 44 | 1010.7 |
| 20260510005015 | 10 | 319 | 1.6 | 8.0 | 0.00 | 0.18 | 0.18 | 43 | 1010.6 |
| 20260510004015 | 11 | 327 | 3.2 | 9.7 | 0.00 | 0.18 | 0.18 | 42 | 1010.5 |
| 20260510003015 | 11 | 324 | 4.8 | 12.9 | 0.00 | 0.18 | 0.18 | 42 | 1010.4 |
| 20260510002015 | 11 | 323 | 6.4 | 12.9 | 0.00 | 0.18 | 0.18 | 41 | 1010.3 |
| 20260510001015 | 11 | 328 | 6.4 | 17.7 | 0.00 | 0.18 | 0.18 | 40 | 1010.3 |
| 20260510000056 | 12 | 327 | 6.4 | 14.5 | 0.00 | 0.18 | 0.18 | 39 | 1010.1 |
| 20260509235055 | 12 | 327 | 6.4 | 16.1 | 0.00 | 0.18 | 0.18 | 39 | 1010.1 |
| 20260509234015 | 11 | 328 | 8.0 | 19.3 | 0.00 | 0.18 | 0.18 | 40 | 1010.0 |
| 20260509233015 | 11 | 343 | 4.8 | 12.9 | 0.00 | 0.18 | 0.18 | 39 | 1009.8 |
| 20260509232015 | 12 | 327 | 6.4 | 22.5 | 0.00 | 0.18 | 0.18 | 38 | 1009.9 |
| 20260509231015 | 12 | 328 | 11.3 | 22.5 | 0.00 | 0.18 | 0.18 | 38 | 1009.7 |
| 20260509230015 | 12 | 332 | 11.3 | 22.5 | 0.00 | 0.18 | 0.18 | 38 | 1009.5 |
| 20260509225015 | 12 | 325 | 6.4 | 16.1 | 0.00 | 0.18 | 0.18 | 37 | 1009.3 |
| 20260509224015 | 12 | 324 | 6.4 | 17.7 | 0.00 | 0.18 | 0.18 | 37 | 1009.2 |
| 20260509223015 | 13 | 333 | 9.7 | 22.5 | 0.00 | 0.18 | 0.18 | 36 | 1009.1 |
| 20260509222020 | 13 | 331 | 6.4 | 17.7 | 0.00 | 0.18 | 0.18 | 37 | 1008.9 |
| 20260509221015 | 13 | 327 | 6.4 | 17.7 | 0.00 | 0.18 | 0.18 | 36 | 1008.8 |
| 20260509220136 | 12 | 322 | 4.8 | 17.7 | 0.00 | 0.18 | 0.18 | 36 | 1008.6 |
| 20260509215015 | 13 | 294 | 3.2 | 16.1 | 0.00 | 0.18 | 0.18 | 37 | 1008.6 |
| 20260509214014 | 12 | 335 | 4.8 | 17.7 | 0.00 | 0.18 | 0.18 | 38 | 1008.5 |
| 20260509213015 | 13 | 300 | 3.2 | 16.1 | 0.00 | 0.18 | 0.18 | 39 | 1008.4 |
| 20260509212015 | 12 | 275 | 3.2 | 16.1 | 0.00 | 0.18 | 0.18 | 38 | 1008.2 |
| 20260509211055 | 12 | 325 | 4.8 | 27.4 | 0.00 | 0.18 | 0.18 | 38 | 1008.0 |
| 20260509210015 | 13 | 328 | 8.0 | 20.9 | 0.00 | 0.18 | 0.18 | 38 | 1008.1 |
| 20260509205015 | 13 | 281 | 3.2 | 16.1 | 0.00 | 0.18 | 0.18 | 37 | 1008.0 |
| 20260509204015 | 14 | 327 | 8.0 | 17.7 | 0.00 | 0.18 | 0.18 | 35 | 1007.9 |
| 20260509203015 | 14 | 231 | 4.8 | 20.9 | 0.00 | 0.18 | 0.18 | 37 | 1007.9 |
| 20260509202015 | 13 | 309 | 6.4 | 19.3 | 0.00 | 0.18 | 0.18 | 38 | 1007.6 |
| 20260509201015 | 13 | 331 | 8.0 | 20.9 | 0.00 | 0.18 | 0.18 | 36 | 1007.6 |
| 20260509200014 | 14 | 329 | 9.7 | 19.3 | 0.00 | 0.18 | 0.18 | 34 | 1007.6 |
| 20260509195015 | 15 | 307 | 3.2 | 12.9 | 0.00 | 0.18 | 0.18 | 37 | 1007.5 |
| 20260509194017 | 14 | 310 | 3.2 | 11.3 | 0.00 | 0.18 | 0.18 | 36 | 1007.4 |
| 20260509193016 | 14 | 302 | 6.4 | 19.3 | 0.00 | 0.18 | 0.18 | 37 | 1007.1 |
| 20260509192017 | 13 | 285 | 4.8 | 22.5 | 0.00 | 0.18 | 0.18 | 38 | 1007.1 |
| 20260509191017 | 13 | 275 | 4.8 | 14.5 | 0.00 | 0.18 | 0.18 | 37 | 1007.1 |
| 20260509190014 | 14 | 293 | 4.8 | 19.3 | 0.00 | 0.18 | 0.18 | 38 | 1006.9 |
| 20260509185015 | 14 | 315 | 4.8 | 16.1 | 0.00 | 0.18 | 0.18 | 38 | 1006.9 |
| 20260509184017 | 14 | 321 | 4.8 | 14.5 | 0.00 | 0.18 | 0.18 | 39 | 1006.8 |
| 20260509182016 | 12 | 323 | 4.8 | 16.1 | 0.00 | 0.18 | 0.18 | 42 | 1006.6 |
| 20260509181016 | 13 | 288 | 3.2 | 12.9 | 0.00 | 0.18 | 0.18 | 45 | 1006.6 |
| 20260509180017 | 12 | 295 | 3.2 | 14.5 | 0.00 | 0.18 | 0.18 | 45 | 1006.5 |
| 20260509175016 | 12 | 318 | 4.8 | 17.7 | 0.00 | 0.18 | 0.18 | 44 | 1006.3 |
| 20260509174016 | 12 | 298 | 4.8 | 17.7 | 0.00 | 0.18 | 0.18 | 49 | 1006.3 |
| 20260509173016 | 12 | 325 | 6.4 | 17.7 | 0.00 | 0.18 | 0.18 | 48 | 1006.1 |
| 20260509172016 | 12 | 333 | 3.2 | 12.9 | 0.00 | 0.18 | 0.18 | 49 | 1006.2 |
| 20260509171016 | 11 | 292 | 3.2 | 14.5 | 0.00 | 0.18 | 0.18 | 52 | 1006.0 |
| 20260509165016 | 12 | 324 | 3.2 | 16.1 | 0.00 | 0.18 | 0.18 | 51 | 1005.9 |
| 20260509164016 | 12 | 296 | 3.2 | 9.7 | 0.00 | 0.18 | 0.18 | 53 | 1005.8 |
| 20260509163017 | 12 | 271 | 3.2 | 27.4 | 0.00 | 0.18 | 0.18 | 52 | 1005.7 |
| 20260509162016 | 12 | 312 | 4.8 | 17.7 | 0.00 | 0.18 | 0.18 | 52 | 1005.7 |
| 20260509161057 | 12 | 5 | 6.4 | 17.7 | 0.00 | 0.18 | 0.18 | 54 | 1005.6 |
| 20260509160017 | 11 | 283 | 3.2 | 11.3 | 0.00 | 0.18 | 0.18 | 58 | 1005.5 |
| 20260509155016 | 11 | 328 | 8.0 | 20.9 | 0.00 | 0.18 | 0.18 | 62 | 1005.5 |
| 20260509154017 | 11 | 290 | 4.8 | 14.5 | 0.00 | 0.18 | 0.18 | 65 | 1005.3 |
| 20260509153016 | 10 | 315 | 4.8 | 20.9 | 0.00 | 0.18 | 0.18 | 69 | 1005.1 |
| 20260509152016 | 10 | 295 | 1.6 | 8.0 | 0.00 | 0.18 | 0.18 | 73 | 1005.3 |
| 20260509151056 | 10 | 274 | 1.6 | 9.7 | 0.00 | 0.18 | 0.18 | 74 | 1005.0 |
| 20260509150016 | 9 | 322 | 6.4 | 14.5 | 0.00 | 0.18 | 0.18 | 74 | 1004.8 |
| 20260509145016 | 9 | 103 | 1.6 | 11.3 | 0.00 | 0.18 | 0.18 | 78 | 1004.7 |
| 20260509144016 | 8 | 313 | 3.2 | 14.5 | 0.00 | 0.18 | 0.18 | 78 | 1004.5 |
| 20260509143056 | 8 | 308 | 3.2 | 12.9 | 0.00 | 0.18 | 0.18 | 83 | 1004.5 |
| 20260509142021 | 8 | 268 | 1.6 | 6.4 | 0.00 | 0.18 | 0.18 | 85 | 1004.4 |
| 20260509141016 | 8 | 250 | 1.6 | 9.7 | 0.00 | 0.18 | 0.18 | 89 | 1004.4 |
| 20260509140016 | 7 | 272 | 1.6 | 9.7 | 0.00 | 0.18 | 0.18 | 91 | 1004.3 |
| 20260509135016 | 7 | 256 | 1.6 | 8.0 | 0.00 | 0.18 | 0.18 | 92 | 1004.3 |
| 20260509134016 | 7 | 273 | 1.6 | 6.4 | 0.00 | 0.18 | 0.18 | 94 | 1004.2 |
| 20260509133016 | 6 | 224 | 0.0 | 6.4 | 0.00 | 0.18 | 0.18 | 95 | 1004.1 |
| 20260509132016 | 6 | 269 | 0.0 | 4.8 | 0.00 | 0.18 | 0.18 | 95 | 1004.0 |
| 20260509131016 | 5 | 261 | 0.0 | 3.2 | 0.05 | 0.18 | 0.18 | 95 | 1003.9 |
| 20260509130016 | 5 | 317 | 0.0 | 3.2 | 0.10 | 0.18 | 0.18 | 95 | 1003.8 |
| 20260509125056 | 5 | 317 | 1.6 | 8.0 | 0.18 | 0.18 | 0.18 | 94 | 1003.8 |
| 20260509124016 | 5 | 86 | 1.6 | 6.4 | 0.18 | 0.18 | 0.18 | 94 | 1003.8 |
| 20260509123016 | 5 | 119 | 1.6 | 3.2 | 0.18 | 0.18 | 0.18 | 93 | 1003.6 |
| 20260509122016 | 5 | 120 | 0.0 | 4.8 | 0.18 | 0.18 | 0.18 | 92 | 1003.7 |
| 20260509121016 | 5 | 121 | 0.0 | 1.6 | 0.13 | 0.13 | 0.13 | 91 | 1003.8 |
| 20260509120016 | 5 | 125 | 1.6 | 6.4 | 0.08 | 0.08 | 0.08 | 89 | 1003.9 |
| 20260509115016 | 6 | 317 | 3.2 | 12.9 | 0.00 | 0.00 | 0.00 | 87 | 1004.0 |
| 20260509114016 | 6 | 327 | 6.4 | 16.1 | 0.00 | 0.00 | 0.00 | 83 | 1003.7 |
| 20260509113016 | 7 | 320 | 3.2 | 12.9 | 0.00 | 0.00 | 0.00 | 80 | 1003.7 |
| 20260509112016 | 7 | 329 | 4.8 | 14.5 | 0.00 | 0.00 | 0.00 | 76 | 1003.5 |
| 20260509111056 | 8 | 325 | 4.8 | 12.9 | 0.00 | 0.00 | 0.00 | 72 | 1003.3 |
| 20260509110016 | 8 | 340 | 4.8 | 17.7 | 0.00 | 0.00 | 0.00 | 69 | 1003.1 |
| 20260509105016 | 8 | 333 | 4.8 | 14.5 | 0.00 | 0.00 | 0.00 | 62 | 1002.9 |
| 20260509104016 | 8 | 332 | 1.6 | 6.4 | 0.00 | 0.00 | 0.00 | 57 | 1002.7 |
| 20260509103015 | 7 | 239 | 0.0 | 1.6 | 0.00 | 0.00 | 0.00 | 57 | 1002.5 |
| 20260509102016 | 7 | 252 | 0.0 | 3.2 | 0.00 | 0.00 | 0.00 | 57 | 1002.4 |
| 20260509101016 | 8 | 0.0 | 0.0 | 0.00 | 0.00 | 0.00 | 57 | 1002.3 | |
| 20260509100016 | 8 | 0.0 | 0.0 | 0.00 | 0.00 | 0.00 | 55 | 1002.1 | |
| 20260509095016 | 7 | 254 | 0.0 | 1.6 | 0.00 | 0.00 | 0.00 | 57 | 1002.3 |
| 20260509094015 | 7 | 0.0 | 0.0 | 0.00 | 0.00 | 0.00 | 57 | 1002.3 | |
| 20260509093016 | 7 | 0.0 | 0.0 | 0.00 | 0.00 | 0.00 | 57 | 1002.3 | |
| 20260509092016 | 7 | 0.0 | 0.0 | 0.00 | 0.00 | 0.00 | 57 | 1002.4 | |
| 20260509091015 | 7 | 0.0 | 0.0 | 0.00 | 0.00 | 0.00 | 58 | 1002.4 | |
| 20260509090015 | 7 | 0.0 | 0.0 | 0.00 | 0.00 | 0.00 | 59 | 1002.4 | |
| 20260509085056 | 7 | 0.0 | 0.0 | 0.00 | 0.00 | 0.00 | 58 | 1002.4 | |
| 20260509084016 | 8 | 0.0 | 0.0 | 0.00 | 0.00 | 0.00 | 56 | 1002.4 | |
| 20260509083016 | 8 | 0.0 | 0.0 | 0.00 | 0.00 | 0.00 | 55 | 1002.2 | |
| 20260509082015 | 8 | 0.0 | 0.0 | 0.00 | 0.00 | 0.00 | 56 | 1002.3 | |
| 20260509081016 | 8 | 0.0 | 0.0 | 0.00 | 0.00 | 0.00 | 54 | 1002.2 | |
| 20260509080016 | 8 | 0.0 | 0.0 | 0.00 | 0.00 | 0.00 | 54 | 1002.2 | |
| 20260509075015 | 8 | 0.0 | 0.0 | 0.00 | 0.00 | 0.00 | 53 | 1002.4 | |
| 20260509074015 | 9 | 0.0 | 0.0 | 0.00 | 0.00 | 0.00 | 52 | 1002.3 | |
| 20260509073015 | 9 | 0.0 | 1.6 | 0.00 | 0.00 | 0.00 | 53 | 1002.4 | |
| 20260509072056 | 9 | 234 | 0.0 | 3.2 | 0.00 | 0.00 | 0.00 | 53 | 1002.7 |
| 20260509071015 | 9 | 0.0 | 3.2 | 0.00 | 0.00 | 0.00 | 54 | 1002.7 | |
| 20260509070015 | 9 | 247 | 0.0 | 3.2 | 0.00 | 0.00 | 0.00 | 54 | 1002.7 |
| 20260509065015 | 9 | 249 | 0.0 | 3.2 | 0.00 | 0.00 | 0.00 | 54 | 1002.8 |
| 20260509064016 | 9 | 0.0 | 1.6 | 0.00 | 0.00 | 0.00 | 54 | 1002.3 | |
| 20260509063015 | 10 | 229 | 0.0 | 1.6 | 0.00 | 0.00 | 0.00 | 53 | 1002.5 |
| 20260509062015 | 10 | 276 | 0.0 | 1.6 | 0.00 | 0.00 | 0.00 | 53 | 1002.4 |
| 20260509061056 | 10 | 201 | 0.0 | 3.2 | 0.00 | 0.00 | 0.00 | 53 | 1002.6 |
| 20260509060016 | 9 | 148 | 0.0 | 1.6 | 0.00 | 0.00 | 0.00 | 54 | 1002.5 |
| 20260509055015 | 9 | 236 | 0.0 | 3.2 | 0.00 | 0.00 | 0.00 | 56 | 1002.1 |
| 20260509054136 | 8 | 224 | 0.0 | 3.2 | 0.00 | 0.00 | 0.00 | 57 | 1002.1 |
| 20260509053055 | 9 | 304 | 1.6 | 4.8 | 0.00 | 0.00 | 0.00 | 57 | 1002.1 |
| 20260509052015 | 10 | 262 | 1.6 | 3.2 | 0.00 | 0.00 | 0.00 | 55 | 1002.1 |
| 20260509051015 | 9 | 219 | 1.6 | 4.8 | 0.00 | 0.00 | 0.00 | 55 | 1001.8 |
| 20260509050015 | 9 | 0.0 | 0.0 | 0.00 | 0.00 | 0.00 | 56 | 1001.7 | |
| 20260509045015 | 10 | 0.0 | 0.0 | 0.00 | 0.00 | 0.00 | 55 | 1001.5 | |
| 20260509044015 | 10 | 0.0 | 0.0 | 0.00 | 0.00 | 0.00 | 55 | 1001.6 | |
| 20260509043015 | 10 | 137 | 0.0 | 3.2 | 0.00 | 0.00 | 0.00 | 57 | 1001.7 |
| 20260509042015 | 10 | 137 | 3.2 | 3.2 | 0.00 | 0.00 | 0.00 | 56 | 1001.7 |
| 20260509041136 | 10 | 0.0 | 0.0 | 0.00 | 0.00 | 0.00 | 55 | 1001.8 | |
| 20260509040015 | 11 | 0.0 | 0.0 | 0.00 | 0.00 | 0.00 | 54 | 1002.0 | |
| 20260509035015 | 11 | 137 | 1.6 | 3.2 | 0.00 | 0.00 | 0.00 | 53 | 1002.0 |
| 20260509034015 | 11 | 138 | 1.6 | 3.2 | 0.00 | 0.00 | 0.00 | 53 | 1002.0 |
| 20260509033016 | 11 | 137 | 1.6 | 1.6 | 0.00 | 0.00 | 0.00 | 52 | 1002.2 |
| 20260509032015 | 11 | 138 | 1.6 | 3.2 | 0.00 | 0.00 | 0.00 | 52 | 1002.1 |
| 20260509031015 | 12 | 135 | 1.6 | 3.2 | 0.00 | 0.00 | 0.00 | 52 | 1002.3 |
| 20260509030015 | 12 | 135 | 1.6 | 3.2 | 0.00 | 0.00 | 0.00 | 51 | 1002.3 |